TimeCDT,TemperatureF,Dew PointF,Humidity,Sea Level PressureIn,VisibilityMPH,Wind Direction,Wind SpeedMPH,Gust SpeedMPH,PrecipitationIn,Events,Conditions,WindDirDegrees,DateUTC
12:53 AM,75.0,71.1,87,29.92,10.0,Calm,Calm,-,N/A,,Clear,0,2013-08-31 05:53:00
1:53 AM,73.9,70.0,87,29.92,10.0,Calm,Calm,-,N/A,,Clear,0,2013-08-31 06:53:00
2:53 AM,72.0,68.0,87,29.91,10.0,Calm,Calm,-,N/A,,Clear,0,2013-08-31 07:53:00
3:53 AM,72.0,68.0,87,29.92,10.0,Calm,Calm,-,N/A,,Clear,0,2013-08-31 08:53:00
4:53 AM,72.0,69.1,91,29.92,10.0,Calm,Calm,-,N/A,,Clear,0,2013-08-31 09:53:00
5:53 AM,71.1,69.1,93,29.93,10.0,Calm,Calm,-,N/A,,Clear,0,2013-08-31 10:53:00
6:53 AM,71.1,68.0,90,29.94,10.0,Calm,Calm,-,N/A,,Clear,0,2013-08-31 11:53:00
7:53 AM,75.9,71.1,85,29.95,10.0,Calm,Calm,-,N/A,,Clear,0,2013-08-31 12:53:00
8:53 AM,82.0,73.9,76,29.95,10.0,NW,3.5,-,N/A,,Clear,320,2013-08-31 13:53:00
9:53 AM,88.0,73.0,61,29.95,10.0,Variable,3.5,-,N/A,,Clear,0,2013-08-31 14:53:00
10:53 AM,90.0,73.0,57,29.95,10.0,Variable,5.8,-,N/A,,Clear,0,2013-08-31 15:53:00
11:53 AM,91.9,70.0,48,29.94,10.0,SW,6.9,-,N/A,,Clear,230,2013-08-31 16:53:00
12:53 PM,93.0,69.1,45,29.93,10.0,WSW,5.8,-,N/A,,Partly Cloudy,240,2013-08-31 17:53:00
1:53 PM,93.9,69.1,44,29.91,10.0,SSW,5.8,-,N/A,,Partly Cloudy,200,2013-08-31 18:53:00
2:53 PM,95.0,68.0,41,29.87,10.0,SW,6.9,-,N/A,,Clear,230,2013-08-31 19:53:00
3:53 PM,93.9,69.1,44,29.86,10.0,Calm,Calm,-,N/A,,Scattered Clouds,0,2013-08-31 20:53:00
4:53 PM,95.0,68.0,41,29.86,10.0,WSW,4.6,-,N/A,,Mostly Cloudy,240,2013-08-31 21:53:00
5:16 PM,95.0,69.8,44,29.88,10.0,Variable,4.6,-,N/A,Thunderstorm,Mostly Cloudy,0,2013-08-31 22:16:00
5:53 PM,89.1,70.0,53,29.86,10.0,East,5.8,-,N/A,Thunderstorm,Scattered Clouds,100,2013-08-31 22:53:00
6:10 PM,87.8,69.8,55,29.87,10.0,East,5.8,-,N/A,,Clear,90,2013-08-31 23:10:00
6:53 PM,84.0,72.0,67,29.86,10.0,Calm,Calm,-,N/A,,Clear,0,2013-08-31 23:53:00
7:53 PM,80.1,72.0,76,29.87,10.0,Calm,Calm,-,N/A,,Partly Cloudy,0,2013-09-01 00:53:00
8:53 PM,80.1,72.0,76,29.88,10.0,Calm,Calm,-,N/A,,Clear,0,2013-09-01 01:53:00
9:53 PM,77.0,72.0,84,29.88,10.0,Calm,Calm,-,N/A,,Clear,0,2013-09-01 02:53:00
10:53 PM,77.0,72.0,84,29.87,10.0,Calm,Calm,-,N/A,,Clear,0,2013-09-01 03:53:00
11:53 PM,75.9,72.0,87,29.87,10.0,Calm,Calm,-,N/A,,Clear,0,2013-09-01 04:53:00